KD4PYR Weather Reports


Display with metric or nautical units.
time (UTC)temp
F
wind
direction
speed
MPH
gust
MPH
rain 1hr
in
rain 24hr
in
rain mn
in
humidity
%
barometer
mb
20260508045827 46 183 0.0 1.0 0.00 0.00 0.00 74 1012.7
20260508044828 46 183 0.0 1.0 0.00 0.00 0.00 71 1012.9
20260508043824 47 184 0.0 1.0 0.00 0.00 0.00 69 1012.9
20260508042816 48 184 0.0 2.0 0.00 0.00 0.00 66 1012.9
20260508041832 48 180 0.0 3.0 0.00 0.00 0.00 65 1012.8
20260508040849 48 187 0.0 4.0 0.00 0.00 0.00 68 1012.7
20260508035829 48 187 0.0 3.0 0.00 0.00 0.00 65 1012.8
20260508034833 48 187 1.0 5.0 0.00 0.00 0.00 66 1012.9
20260508033825 48 188 0.0 2.0 0.00 0.00 0.00 67 1013.0
20260508032817 48 188 0.0 2.0 0.00 0.00 0.00 67 1012.9
20260508031837 48 188 1.0 2.0 0.00 0.00 0.00 67 1012.9
20260508030827 47 221 0.0 2.0 0.00 0.00 0.00 70 1012.8
20260508025852 47 305 0.0 1.0 0.00 0.00 0.00 70 1012.9
20260508024835 48 313 0.0 1.0 0.00 0.00 0.00 71 1012.8
20260508023826 47 313 0.0 2.0 0.00 0.00 0.00 71 1012.8
20260508022819 47 313 0.0 0.0 0.00 0.00 0.00 69 1012.6
20260508021840 47 313 1.0 1.0 0.00 0.00 0.00 72 1012.7
20260508020831 47 313 0.0 2.0 0.00 0.00 0.00 73 1012.7
20260508015834 47 313 0.0 0.0 0.00 0.00 0.00 71 1012.7
20260508014836 48 313 0.0 1.0 0.00 0.00 0.00 68 1012.6
20260508013830 48 313 0.0 0.0 0.00 0.00 0.00 69 1012.6
20260508012823 49 313 0.0 0.0 0.00 0.00 0.00 66 1012.5
20260508011901 49 313 0.0 0.0 0.00 0.00 0.00 66 1012.5
20260508010832 50 313 0.0 0.0 0.00 0.00 0.00 65 1012.4
20260508005836 50 313 0.0 0.0 0.00 0.00 0.00 62 1012.5
20260508004837 51 313 0.0 0.0 0.00 0.00 0.00 61 1012.3
20260508003829 53 313 0.0 0.0 0.00 0.00 0.00 61 1012.3
20260508002821 54 313 0.0 1.0 0.00 0.00 0.00 58 1012.2
20260508001839 55 313 0.0 1.0 0.00 0.00 0.00 54 1012.1
20260508000830 56 313 1.0 3.0 0.00 0.00 0.00 51 1012.1
20260507235816 57 304 0.0 4.0 0.00 0.00 0.00 44 1012.0
20260507234839 57 300 0.0 3.0 0.00 0.00 0.00 44 1011.9
20260507233830 57 296 1.0 2.0 0.00 0.00 0.00 42 1011.9
20260507232848 57 297 2.0 6.0 0.00 0.00 0.00 42 1011.9
20260507231840 58 261 2.0 4.0 0.00 0.00 0.00 43 1011.9
20260507230837 58 239 1.0 5.0 0.00 0.00 0.00 41 1011.8
20260507225840 58 229 2.0 8.0 0.00 0.00 0.00 42 1012.0
20260507224844 58 113 1.0 7.0 0.00 0.00 0.00 43 1011.9
20260507223838 59 326 1.0 8.0 0.00 0.00 0.00 43 1011.9
20260507222831 59 333 2.0 10.0 0.00 0.00 0.00 41 1011.8
20260507221910 59 360 2.0 8.0 0.00 0.00 0.00 40 1011.8
20260507220838 59 355 2.0 8.0 0.00 0.00 0.00 41 1011.8
20260507215842 59 351 4.0 9.0 0.00 0.00 0.00 40 1011.9
20260507214844 59 320 3.0 8.0 0.00 0.00 0.00 41 1011.9
20260507213836 59 286 3.0 5.0 0.00 0.00 0.00 41 1012.0
20260507212832 60 225 3.0 11.0 0.00 0.00 0.00 41 1012.0
20260507211910 60 300 6.0 16.0 0.00 0.00 0.00 38 1011.9
20260507210839 61 312 4.0 10.0 0.00 0.00 0.00 38 1011.9
20260507205842 61 298 4.0 8.0 0.00 0.00 0.00 40 1011.9
20260507204827 61 300 3.0 13.0 0.00 0.00 0.00 38 1011.8
20260507203905 60 285 6.0 13.0 0.00 0.00 0.00 37 1011.9
20260507202837 61 42 4.0 9.0 0.00 0.00 0.00 39 1011.8
20260507201830 60 346 2.0 6.0 0.00 0.00 0.00 39 1011.8
20260507200849 61 355 2.0 9.0 0.00 0.00 0.00 40 1011.9
20260507195824 61 334 3.0 10.0 0.00 0.00 0.00 40 1011.9
20260507194827 60 324 6.0 11.0 0.00 0.00 0.00 41 1011.8
20260507193846 60 300 3.0 8.0 0.00 0.00 0.00 41 1012.1
20260507192839 60 284 1.0 10.0 0.00 0.00 0.00 39 1012.2
20260507191832 61 327 8.0 12.0 0.00 0.00 0.00 39 1012.3
20260507190823 60 344 3.0 9.0 0.00 0.00 0.00 39 1012.3
20260507185826 60 301 3.0 13.0 0.00 0.00 0.00 41 1012.2
20260507184829 60 292 4.0 10.0 0.00 0.00 0.00 40 1012.3
20260507183845 59 49 8.0 13.0 0.00 0.00 0.00 38 1012.3
20260507182838 59 325 3.0 13.0 0.00 0.00 0.00 42 1012.3
20260507181830 59 306 4.0 10.0 0.00 0.00 0.00 41 1012.3
20260507180847 58 349 3.0 10.0 0.00 0.00 0.00 40 1012.4
20260507175823 58 325 2.0 15.0 0.00 0.00 0.00 43 1012.5
20260507174827 58 339 5.0 14.0 0.00 0.00 0.00 38 1012.8
20260507173844 58 300 5.0 14.0 0.00 0.00 0.00 40 1012.9
20260507172841 58 286 4.0 9.0 0.00 0.00 0.00 42 1013.0
20260507171833 57 260 8.0 16.0 0.00 0.00 0.00 40 1013.2
20260507170825 57 306 11.0 15.0 0.00 0.00 0.00 39 1013.3
20260507165850 57 288 5.0 14.0 0.00 0.00 0.00 43 1013.3
20260507164831 57 360 5.0 12.0 0.00 0.00 0.00 42 1013.4
20260507163824 56 330 6.0 13.0 0.00 0.00 0.00 42 1013.5
20260507162815 56 306 3.0 12.0 0.00 0.00 0.00 44 1013.6
20260507161833 56 273 4.0 14.0 0.00 0.00 0.00 45 1013.5
20260507160825 55 288 6.0 13.0 0.00 0.00 0.00 44 1013.6
20260507155833 55 323 6.0 12.0 0.00 0.00 0.00 43 1013.6
20260507154836 55 277 6.0 12.0 0.00 0.00 0.00 44 1013.5
20260507153829 54 300 6.0 12.0 0.00 0.00 0.00 47 1013.7
20260507152823 53 294 9.0 15.0 0.00 0.00 0.00 46 1013.5
20260507151816 53 307 4.0 11.0 0.00 0.00 0.00 48 1013.4
20260507150833 53 296 8.0 12.0 0.00 0.00 0.00 48 1013.2
20260507145833 52 335 4.0 9.0 0.00 0.00 0.00 51 1013.4
20260507144816 52 291 4.0 10.0 0.00 0.00 0.00 51 1013.5
20260507143834 51 282 4.0 10.0 0.00 0.00 0.00 52 1013.5
20260507142825 51 282 5.0 12.0 0.00 0.00 0.00 51 1013.5
20260507141844 50 360 7.0 13.0 0.00 0.00 0.00 51 1013.5
20260507140839 50 298 4.0 11.0 0.00 0.00 0.00 50 1013.6
20260507135822 50 334 4.0 11.0 0.00 0.00 0.00 51 1013.7
20260507134827 49 334 4.0 13.0 0.00 0.00 0.00 51 1013.6
20260507133905 49 302 6.0 12.0 0.00 0.00 0.00 51 1013.5
20260507132833 49 348 4.0 13.0 0.00 0.00 0.00 55 1013.5
20260507131824 48 287 2.0 8.0 0.00 0.00 0.00 62 1013.6
20260507130841 47 294 4.0 8.0 0.00 0.00 0.00 63 1013.6
20260507125845 47 312 3.0 8.0 0.00 0.00 0.00 67 1013.5
20260507124846 46 323 2.0 5.0 0.00 0.00 0.00 69 1013.4
20260507123837 45 327 1.0 5.0 0.00 0.00 0.00 72 1013.5
20260507122826 45 317 2.0 5.0 0.00 0.00 0.00 73 1013.6
20260507121843 44 355 1.0 6.0 0.00 0.00 0.00 75 1013.7
20260507120835 43 335 2.0 5.0 0.00 0.00 0.00 76 1013.7
20260507115822 43 331 1.0 5.0 0.00 0.00 0.00 77 1013.5
20260507114826 42 278 2.0 4.0 0.00 0.00 0.00 78 1013.7
20260507113845 42 288 2.0 3.0 0.00 0.00 0.00 79 1013.7
20260507112836 42 288 1.0 3.0 0.00 0.00 0.00 80 1013.7
20260507111830 41 289 2.0 3.0 0.00 0.00 0.00 80 1013.5
20260507110848 41 289 1.0 3.0 0.00 0.00 0.00 80 1013.3
20260507105833 41 289 1.0 2.0 0.00 0.00 0.00 80 1013.1
20260507104901 41 289 0.0 1.0 0.00 0.00 0.00 80 1012.9
20260507103832 41 289 0.0 2.0 0.00 0.00 0.00 80 1012.9
20260507102825 41 289 0.0 1.0 0.00 0.00 0.00 80 1012.9
20260507101843 41 289 0.0 2.0 0.00 0.00 0.00 80 1013.0
20260507100901 42 289 1.0 2.0 0.00 0.00 0.00 80 1012.9
20260507095826 42 289 1.0 3.0 0.00 0.01 0.00 80 1012.9
20260507094851 42 289 1.0 4.0 0.00 0.01 0.00 80 1012.9
20260507093824 42 299 2.0 4.0 0.00 0.01 0.00 80 1012.9
20260507092843 42 271 2.0 4.0 0.00 0.01 0.00 80 1012.9
20260507091836 42 281 2.0 4.0 0.00 0.01 0.00 80 1012.8
20260507090853 42 283 1.0 4.0 0.00 0.01 0.00 81 1012.7
20260507085815 42 281 1.0 3.0 0.00 0.06 0.00 81 1012.7
20260507084838 42 281 1.0 3.0 0.00 0.06 0.00 82 1012.6
20260507083831 42 284 0.0 1.0 0.00 0.06 0.00 82 1012.6
20260507082847 41 284 0.0 0.0 0.00 0.06 0.00 82 1012.4
20260507081839 41 284 0.0 1.0 0.00 0.06 0.00 82 1012.4
20260507080830 41 284 0.0 1.0 0.00 0.06 0.00 82 1012.4
20260507075833 41 284 0.0 0.0 0.00 0.16 0.00 82 1012.5
20260507074838 42 284 0.0 0.0 0.00 0.16 0.00 81 1012.4
20260507073829 42 284 0.0 0.0 0.00 0.16 0.00 81 1012.4
20260507072822 42 284 0.0 0.0 0.00 0.16 0.00 81 1012.4
20260507071902 42 284 0.0 0.0 0.00 0.16 0.00 80 1012.5
20260507070900 43 284 0.0 0.0 0.00 0.16 0.00 80 1012.5
20260507065851 44 284 0.0 1.0 0.00 0.27 0.00 80 1012.5
20260507064831 44 284 0.0 1.0 0.00 0.27 0.00 80 1012.4
20260507063823 44 284 0.0 1.0 0.00 0.27 0.00 80 1012.5
20260507062844 44 284 1.0 2.0 0.00 0.27 0.00 81 1012.6
20260507061839 43 284 1.0 2.0 0.00 0.27 0.00 81 1012.6
20260507060829 43 284 0.0 1.0 0.00 0.27 0.00 82 1012.6
20260507055814 43 284 0.0 0.0 0.00 0.36 0.00 82 1012.6
20260507054838 44 284 0.0 0.0 0.00 0.36 0.00 82 1012.6
20260507053831 44 284 0.0 0.0 0.00 0.36 0.00 82 1012.6
20260507052827 44 283 0.0 0.0 0.00 0.36 0.00 82 1012.7
20260507051901 43 284 0.0 0.0 0.00 0.36 0.00 81 1012.7
20260507050836 44 284 0.0 0.0 0.00 0.36 0.00 81 1012.5